| time (UTC) | temp F | wind direction | speed knots | gust knots | rain 1hr in | rain 24hr in | rain mn in | humidity % | barometer mb |
| 20260831192159 | 72 | 312 | 0.9 | 0.9 | 0.00 | 0.00 | 0.00 | 44 | 1032.6 |
| 20260831191654 | 72 | 129 | 0.9 | 1.7 | 0.00 | 0.00 | 0.00 | 44 | 1032.4 |
| 20260831191150 | 72 | 289 | 1.7 | 1.7 | 0.00 | 0.00 | 0.00 | 44 | 1032.6 |
| 20260831190640 | 72 | 25 | 1.7 | 1.7 | 0.00 | 0.00 | 0.00 | 45 | 1032.6 |
| 20260831190139 | 72 | 218 | 0.9 | 1.7 | 0.00 | 0.00 | 0.00 | 45 | 1032.6 |
| 20260831185634 | 73 | 229 | 1.7 | 2.6 | 0.00 | 0.00 | 0.00 | 42 | 1032.7 |
| 20260831185129 | 73 | 229 | 0.9 | 0.9 | 0.00 | 0.00 | 0.00 | 42 | 1032.8 |
| 20260831184624 | 73 | 232 | 0.9 | 1.7 | 0.00 | 0.00 | 0.00 | 41 | 1032.8 |
| 20260831184120 | 73 | 155 | 4.3 | 5.2 | 0.00 | 0.00 | 0.00 | 41 | 1032.9 |
| 20260831183619 | 73 | 230 | 0.0 | 0.0 | 0.00 | 0.00 | 0.00 | 40 | 1032.8 |
| 20260831183118 | 72 | 223 | 0.0 | 0.9 | 0.00 | 0.00 | 0.00 | 43 | 1033.1 |
| 20260831182617 | 72 | 230 | 0.9 | 0.9 | 0.00 | 0.00 | 0.00 | 41 | 1033.1 |
| 20260831182114 | 71 | 230 | 0.9 | 0.9 | 0.00 | 0.00 | 0.00 | 43 | 1033.1 |
| 20260831181613 | 71 | 271 | 0.9 | 0.9 | 0.00 | 0.00 | 0.00 | 41 | 1033.1 |
| 20260831181108 | 72 | 219 | 0.0 | 0.0 | 0.00 | 0.00 | 0.00 | 44 | 1032.8 |
| 20260831180603 | 72 | 229 | 0.9 | 1.7 | 0.00 | 0.00 | 0.00 | 43 | 1032.9 |
| 20260831180058 | 72 | 242 | 2.6 | 2.6 | 0.00 | 0.00 | 0.00 | 43 | 1032.9 |
| 20260831175553 | 72 | 217 | 0.0 | 0.9 | 0.00 | 0.00 | 0.00 | 41 | 1033.4 |
| 20260831175050 | 72 | 177 | 1.7 | 1.7 | 0.00 | 0.00 | 0.00 | 42 | 1033.1 |
| 20260831174544 | 71 | 225 | 1.7 | 1.7 | 0.00 | 0.00 | 0.00 | 44 | 1033.2 |
| 20260831174044 | 71 | 218 | 1.7 | 1.7 | 0.00 | 0.00 | 0.00 | 44 | 1033.2 |
| 20260831173542 | 71 | 223 | 0.0 | 0.0 | 0.00 | 0.00 | 0.00 | 46 | 1033.3 |
| 20260831173039 | 71 | 220 | 0.9 | 0.9 | 0.00 | 0.00 | 0.00 | 47 | 1033.2 |
| 20260831172534 | 71 | 209 | 2.6 | 2.6 | 0.00 | 0.00 | 0.00 | 45 | 1033.2 |
| 20260831172029 | 70 | 231 | 0.9 | 1.7 | 0.00 | 0.00 | 0.00 | 46 | 1033.2 |
| 20260831171524 | 71 | 234 | 0.9 | 1.7 | 0.00 | 0.00 | 0.00 | 53 | 1033.1 |
| 20260831171021 | 70 | 148 | 1.7 | 2.6 | 0.00 | 0.00 | 0.00 | 48 | 1032.9 |
| 20260831170517 | 71 | 349 | 1.7 | 1.7 | 0.00 | 0.00 | 0.00 | 43 | 1033.2 |
| 20260831170015 | 71 | 356 | 0.9 | 0.9 | 0.00 | 0.00 | 0.00 | 42 | 1033.2 |
| 20260831165514 | 71 | 67 | 0.0 | 0.9 | 0.00 | 0.00 | 0.00 | 42 | 1033.4 |
| 20260831165011 | 70 | 316 | 2.6 | 2.6 | 0.00 | 0.00 | 0.00 | 47 | 1033.7 |
| 20260831164507 | 70 | 231 | 0.0 | 0.9 | 0.00 | 0.00 | 0.00 | 46 | 1033.2 |
| 20260831164002 | 70 | 350 | 2.6 | 2.6 | 0.00 | 0.00 | 0.00 | 46 | 1033.1 |
| 20260831163457 | 70 | 0 | 2.6 | 2.6 | 0.00 | 0.00 | 0.00 | 47 | 1033.2 |
| 20260831162956 | 70 | 344 | 3.5 | 4.3 | 0.00 | 0.00 | 0.00 | 48 | 1033.3 |
| 20260831162452 | 70 | 283 | 1.7 | 1.7 | 0.00 | 0.00 | 0.00 | 48 | 1033.1 |
| 20260831161949 | 70 | 270 | 0.9 | 1.7 | 0.00 | 0.00 | 0.00 | 48 | 1033.1 |
| 20260831161446 | 69 | 246 | 2.6 | 4.3 | 0.00 | 0.00 | 0.00 | 50 | 1033.1 |
| 20260831160942 | 69 | 219 | 0.0 | 0.0 | 0.00 | 0.00 | 0.00 | 50 | 1033.1 |
| 20260831160441 | 68 | 39 | 0.9 | 0.9 | 0.00 | 0.00 | 0.00 | 52 | 1033.2 |
| 20260831155936 | 67 | 231 | 1.7 | 1.7 | 0.00 | 0.00 | 0.00 | 53 | 1032.6 |
| 20260831155436 | 67 | 4 | 1.7 | 1.7 | 0.00 | 0.00 | 0.00 | 53 | 1033.2 |
| 20260831154932 | 67 | 344 | 1.7 | 1.7 | 0.00 | 0.00 | 0.00 | 54 | 1032.6 |
| 20260831154428 | 66 | 221 | 0.0 | 0.9 | 0.00 | 0.00 | 0.00 | 54 | 1033.1 |
| 20260831153926 | 66 | 358 | 1.7 | 1.7 | 0.00 | 0.00 | 0.00 | 55 | 1032.8 |
| 20260831153417 | 67 | 328 | 0.9 | 0.9 | 0.00 | 0.00 | 0.00 | 53 | 1033.1 |
| 20260831152913 | 66 | 148 | 2.6 | 2.6 | 0.00 | 0.00 | 0.00 | 53 | 1033.1 |
| 20260831152408 | 67 | 221 | 0.0 | 0.0 | 0.00 | 0.00 | 0.00 | 53 | 1032.6 |
| 20260831151903 | 66 | 266 | 0.9 | 1.7 | 0.00 | 0.00 | 0.00 | 53 | 1032.8 |
| 20260831151402 | 66 | 275 | 1.7 | 1.7 | 0.00 | 0.00 | 0.00 | 52 | 1032.7 |
| 20260831150857 | 66 | 25 | 0.9 | 0.9 | 0.00 | 0.00 | 0.00 | 53 | 1033.1 |
| 20260831150353 | 66 | 355 | 0.9 | 1.7 | 0.00 | 0.00 | 0.00 | 54 | 1032.8 |
| 20260831145852 | 66 | 228 | 0.0 | 0.0 | 0.00 | 0.00 | 0.00 | 51 | 1032.7 |
| 20260831145349 | 65 | 234 | 0.0 | 0.9 | 0.00 | 0.00 | 0.00 | 52 | 1032.7 |
| 20260831144844 | 65 | 194 | 0.0 | 0.0 | 0.00 | 0.00 | 0.00 | 55 | 1032.9 |
| 20260831144340 | 64 | 242 | 0.0 | 0.9 | 0.00 | 0.00 | 0.00 | 56 | 1032.8 |
| 20260831143835 | 65 | 261 | 0.0 | 0.9 | 0.00 | 0.00 | 0.00 | 58 | 1033.1 |
| 20260831143330 | 64 | 205 | 0.0 | 0.0 | 0.00 | 0.00 | 0.00 | 61 | 1033.1 |
| 20260831142825 | 64 | 216 | 0.0 | 0.0 | 0.00 | 0.00 | 0.00 | 62 | 1032.8 |
| 20260831142320 | 63 | 216 | 0.0 | 0.0 | 0.00 | 0.00 | 0.00 | 59 | 1032.8 |
| 20260831141820 | 62 | 222 | 0.0 | 0.0 | 0.00 | 0.00 | 0.00 | 60 | 1032.8 |
| 20260831141315 | 62 | 220 | 0.0 | 0.0 | 0.00 | 0.00 | 0.00 | 60 | 1032.7 |
| 20260831140810 | 62 | 222 | 0.0 | 0.0 | 0.00 | 0.00 | 0.00 | 60 | 1032.9 |
| 20260831140304 | 61 | 215 | 0.0 | 0.0 | 0.00 | 0.00 | 0.00 | 62 | 1032.3 |
| 20260831135802 | 60 | 210 | 0.0 | 0.0 | 0.00 | 0.00 | 0.00 | 63 | 1032.7 |
| 20260831135258 | 59 | 190 | 0.0 | 0.0 | 0.00 | 0.00 | 0.00 | 65 | 1032.4 |
| 20260831134753 | 58 | 206 | 0.0 | 0.0 | 0.00 | 0.00 | 0.00 | 65 | 1032.2 |
| 20260831134250 | 57 | 194 | 0.0 | 0.9 | 0.00 | 0.00 | 0.00 | 66 | 1032.4 |
| 20260831133748 | 56 | 226 | 0.0 | 0.0 | 0.00 | 0.00 | 0.00 | 67 | 1032.3 |
| 20260831133248 | 56 | 228 | 0.0 | 0.0 | 0.00 | 0.00 | 0.00 | 68 | 1032.6 |
| 20260831132744 | 55 | 203 | 0.0 | 0.9 | 0.00 | 0.00 | 0.00 | 66 | 1032.3 |
| 20260831132239 | 55 | 209 | 0.0 | 0.0 | 0.00 | 0.00 | 0.00 | 66 | 1032.2 |
| 20260831131738 | 54 | 177 | 1.7 | 1.7 | 0.00 | 0.00 | 0.00 | 68 | 1032.1 |
| 20260831131235 | 54 | 220 | 0.0 | 0.0 | 0.00 | 0.00 | 0.00 | 69 | 1031.9 |
| 20260831130730 | 53 | 196 | 0.9 | 0.9 | 0.00 | 0.00 | 0.00 | 69 | 1031.8 |
| 20260831130225 | 53 | 187 | 0.9 | 0.9 | 0.00 | 0.00 | 0.00 | 71 | 1031.8 |
| 20260831125723 | 52 | 218 | 0.0 | 0.0 | 0.00 | 0.00 | 0.00 | 71 | 1031.7 |
| 20260831125220 | 53 | 193 | 0.9 | 0.9 | 0.00 | 0.00 | 0.00 | 72 | 1031.9 |
| 20260831124714 | 53 | 199 | 0.0 | 0.0 | 0.00 | 0.00 | 0.00 | 70 | 1031.5 |
| 20260831124211 | 53 | 196 | 0.0 | 0.9 | 0.00 | 0.00 | 0.00 | 70 | 1031.8 |
| 20260831123710 | 52 | 216 | 0.9 | 0.9 | 0.00 | 0.00 | 0.00 | 72 | 1031.7 |
| 20260831123209 | 52 | 224 | 0.0 | 0.0 | 0.00 | 0.00 | 0.00 | 72 | 1031.4 |
| 20260831122704 | 52 | 215 | 0.0 | 0.0 | 0.00 | 0.00 | 0.00 | 74 | 1031.4 |
| 20260831122200 | 52 | 204 | 0.0 | 0.0 | 0.00 | 0.00 | 0.00 | 73 | 1031.5 |
| 20260831121659 | 52 | 215 | 0.0 | 0.0 | 0.00 | 0.00 | 0.00 | 72 | 1031.2 |
| 20260831121156 | 52 | 149 | 2.6 | 2.6 | 0.00 | 0.00 | 0.00 | 74 | 1031.4 |
| 20260831120651 | 53 | 226 | 0.0 | 0.0 | 0.00 | 0.00 | 0.00 | 72 | 1031.4 |
| 20260831120145 | 53 | 203 | 0.9 | 0.9 | 0.00 | 0.00 | 0.00 | 70 | 1031.3 |
| 20260831115641 | 52 | 195 | 0.9 | 0.9 | 0.00 | 0.00 | 0.00 | 74 | 1031.4 |
| 20260831115136 | 52 | 219 | 0.0 | 0.0 | 0.00 | 0.00 | 0.00 | 74 | 1031.4 |
| 20260831114635 | 52 | 172 | 1.7 | 1.7 | 0.00 | 0.00 | 0.00 | 74 | 1031.3 |
| 20260831114101 | 54 | 180 | 0.9 | 1.7 | 0.00 | 0.00 | 0.00 | 69 | 1030.9 |
| 20260831113600 | 54 | 180 | 0.9 | 1.7 | 0.00 | 0.00 | 0.00 | 69 | 1030.9 |
| 20260831113056 | 54 | 181 | 1.7 | 1.7 | 0.00 | 0.00 | 0.00 | 71 | 1030.9 |
| 20260831112555 | 55 | 194 | 0.0 | 0.9 | 0.00 | 0.00 | 0.00 | 68 | 1031.3 |
| 20260831112050 | 53 | 213 | 0.0 | 0.9 | 0.00 | 0.00 | 0.00 | 69 | 1031.3 |
| 20260831111546 | 53 | 213 | 0.0 | 0.0 | 0.00 | 0.00 | 0.00 | 74 | 1031.3 |
| 20260831111042 | 53 | 234 | 0.0 | 0.0 | 0.00 | 0.00 | 0.00 | 74 | 1031.2 |
| 20260831110537 | 52 | 151 | 1.7 | 1.7 | 0.00 | 0.00 | 0.00 | 78 | 1031.0 |
| 20260831110032 | 53 | 223 | 0.9 | 0.9 | 0.00 | 0.00 | 0.00 | 72 | 1031.0 |
| 20260831105531 | 52 | 199 | 0.0 | 0.0 | 0.00 | 0.00 | 0.00 | 76 | 1031.2 |
| 20260831105026 | 52 | 204 | 0.0 | 0.0 | 0.00 | 0.00 | 0.00 | 75 | 1030.9 |
| 20260831104522 | 53 | 219 | 0.0 | 0.0 | 0.00 | 0.00 | 0.00 | 75 | 1031.3 |
| 20260831104018 | 53 | 265 | 0.0 | 0.0 | 0.00 | 0.00 | 0.00 | 74 | 1030.9 |
| 20260831103513 | 53 | 207 | 0.9 | 0.9 | 0.00 | 0.00 | 0.00 | 73 | 1031.0 |
| 20260831103010 | 53 | 201 | 0.0 | 0.0 | 0.00 | 0.00 | 0.00 | 75 | 1031.0 |
| 20260831102509 | 54 | 231 | 0.9 | 0.9 | 0.00 | 0.00 | 0.00 | 72 | 1030.7 |
| 20260831102004 | 54 | 196 | 0.0 | 0.0 | 0.00 | 0.00 | 0.00 | 69 | 1030.9 |
| 20260831101459 | 54 | 231 | 0.9 | 0.9 | 0.00 | 0.00 | 0.00 | 71 | 1030.9 |
| 20260831100955 | 53 | 188 | 0.9 | 1.7 | 0.00 | 0.00 | 0.00 | 71 | 1030.8 |
| 20260831100450 | 53 | 226 | 0.0 | 0.0 | 0.00 | 0.00 | 0.00 | 72 | 1030.7 |
| 20260831095946 | 54 | 212 | 0.9 | 0.9 | 0.00 | 0.00 | 0.00 | 71 | 1030.7 |
| 20260831095445 | 53 | 177 | 0.9 | 0.9 | 0.00 | 0.00 | 0.00 | 72 | 1030.7 |
| 20260831094940 | 53 | 206 | 0.0 | 0.0 | 0.00 | 0.00 | 0.00 | 71 | 1030.5 |
| 20260831094436 | 54 | 216 | 0.0 | 0.0 | 0.00 | 0.00 | 0.00 | 70 | 1030.5 |
| 20260831093932 | 53 | 205 | 0.0 | 0.0 | 0.00 | 0.00 | 0.00 | 71 | 1030.8 |
| 20260831093426 | 54 | 222 | 0.0 | 0.0 | 0.00 | 0.00 | 0.00 | 71 | 1030.4 |
| 20260831092923 | 54 | 191 | 0.9 | 0.9 | 0.00 | 0.00 | 0.00 | 69 | 1030.3 |
| 20260831092419 | 55 | 200 | 0.0 | 0.0 | 0.00 | 0.00 | 0.00 | 70 | 1030.5 |
| 20260831091914 | 55 | 220 | 0.0 | 0.0 | 0.00 | 0.00 | 0.00 | 68 | 1030.4 |
| 20260831091409 | 54 | 182 | 0.9 | 0.9 | 0.00 | 0.00 | 0.00 | 68 | 1030.5 |
| 20260831090904 | 54 | 199 | 0.0 | 0.0 | 0.00 | 0.00 | 0.00 | 70 | 1030.4 |
| 20260831090401 | 53 | 206 | 0.0 | 0.0 | 0.00 | 0.00 | 0.00 | 72 | 1030.4 |
| 20260831085857 | 53 | 208 | 0.0 | 0.9 | 0.00 | 0.00 | 0.00 | 74 | 1030.5 |
| 20260831085356 | 54 | 223 | 0.0 | 0.0 | 0.00 | 0.00 | 0.00 | 73 | 1030.4 |
| 20260831084856 | 54 | 208 | 0.0 | 0.0 | 0.00 | 0.00 | 0.00 | 72 | 1030.5 |
| 20260831084352 | 54 | 199 | 0.9 | 1.7 | 0.00 | 0.00 | 0.00 | 67 | 1030.4 |
| 20260831083849 | 53 | 212 | 0.0 | 0.0 | 0.00 | 0.00 | 0.00 | 72 | 1030.4 |
| 20260831083344 | 53 | 205 | 0.0 | 0.0 | 0.00 | 0.00 | 0.00 | 74 | 1030.7 |
| 20260831082842 | 53 | 223 | 0.0 | 0.0 | 0.00 | 0.00 | 0.00 | 75 | 1030.7 |
| 20260831082337 | 53 | 214 | 0.0 | 0.0 | 0.00 | 0.00 | 0.00 | 74 | 1030.4 |
| 20260831081833 | 54 | 230 | 0.0 | 0.0 | 0.00 | 0.00 | 0.00 | 71 | 1030.7 |
| 20260831081329 | 54 | 210 | 0.0 | 0.0 | 0.00 | 0.00 | 0.00 | 72 | 1030.8 |
| 20260831080825 | 55 | 228 | 0.9 | 0.9 | 0.00 | 0.00 | 0.00 | 72 | 1030.9 |
| 20260831080325 | 55 | 217 | 0.0 | 0.0 | 0.00 | 0.00 | 0.00 | 69 | 1031.0 |
| 20260831075820 | 55 | 204 | 0.0 | 0.9 | 0.00 | 0.00 | 0.00 | 67 | 1030.8 |
| 20260831075315 | 55 | 208 | 0.0 | 0.0 | 0.00 | 0.00 | 0.00 | 69 | 1030.8 |
| 20260831074810 | 56 | 222 | 0.0 | 0.0 | 0.00 | 0.00 | 0.00 | 68 | 1031.0 |
| 20260831074308 | 56 | 226 | 0.9 | 0.9 | 0.00 | 0.00 | 0.00 | 68 | 1031.0 |
| 20260831073805 | 57 | 200 | 0.0 | 0.0 | 0.00 | 0.00 | 0.00 | 65 | 1031.2 |
| 20260831073303 | 56 | 148 | 0.9 | 0.9 | 0.00 | 0.00 | 0.00 | 69 | 1031.4 |
| 20260831072759 | 56 | 208 | 0.0 | 0.0 | 0.00 | 0.00 | 0.00 | 68 | 1031.0 |
| 20260831072255 | 56 | 219 | 0.0 | 0.9 | 0.00 | 0.00 | 0.00 | 68 | 1031.3 |
| 20260831071750 | 55 | 188 | 1.7 | 1.7 | 0.00 | 0.00 | 0.00 | 72 | 1031.4 |
| 20260831071244 | 56 | 193 | 0.9 | 0.9 | 0.00 | 0.00 | 0.00 | 69 | 1031.0 |
| 20260831070744 | 57 | 238 | 0.9 | 0.9 | 0.00 | 0.00 | 0.00 | 68 | 1031.4 |
| 20260831070243 | 56 | 223 | 0.9 | 0.9 | 0.00 | 0.00 | 0.00 | 69 | 1031.2 |
| 20260831065742 | 58 | 222 | 0.0 | 0.0 | 0.00 | 0.00 | 0.00 | 69 | 1031.3 |
| 20260831065241 | 58 | 151 | 0.9 | 1.7 | 0.00 | 0.00 | 0.00 | 59 | 1031.2 |
| 20260831064736 | 57 | 180 | 1.7 | 1.7 | 0.00 | 0.00 | 0.00 | 62 | 1031.5 |
| 20260831064231 | 57 | 196 | 0.9 | 0.9 | 0.00 | 0.00 | 0.00 | 64 | 1031.4 |
| 20260831063727 | 56 | 203 | 0.0 | 0.0 | 0.00 | 0.00 | 0.00 | 68 | 1031.4 |
| 20260831063222 | 56 | 210 | 0.0 | 0.0 | 0.00 | 0.00 | 0.00 | 69 | 1031.8 |
| 20260831062722 | 57 | 223 | 0.0 | 0.0 | 0.00 | 0.00 | 0.00 | 68 | 1031.8 |
| 20260831062217 | 58 | 185 | 0.9 | 0.9 | 0.00 | 0.00 | 0.00 | 60 | 1031.5 |
| 20260831061715 | 57 | 219 | 0.0 | 0.9 | 0.00 | 0.00 | 0.00 | 65 | 1032.2 |
| 20260831061211 | 58 | 204 | 0.0 | 0.0 | 0.00 | 0.00 | 0.00 | 66 | 1031.8 |
| 20260831060707 | 58 | 221 | 0.0 | 0.0 | 0.00 | 0.00 | 0.00 | 64 | 1032.2 |
| 20260831060206 | 59 | 213 | 0.0 | 0.0 | 0.00 | 0.00 | 0.00 | 61 | 1032.1 |
| 20260831055701 | 60 | 200 | 0.0 | 0.9 | 0.00 | 0.04 | 0.04 | 60 | 1032.1 |
| 20260831055156 | 61 | 190 | 1.7 | 1.7 | 0.00 | 0.04 | 0.04 | 58 | 1031.9 |
| 20260831054656 | 61 | 228 | 1.7 | 1.7 | 0.00 | 0.04 | 0.04 | 57 | 1031.9 |
| 20260831054155 | 60 | 172 | 2.6 | 2.6 | 0.00 | 0.04 | 0.04 | 59 | 1032.2 |
| 20260831053650 | 60 | 186 | 0.0 | 0.9 | 0.00 | 0.04 | 0.04 | 60 | 1031.9 |
| 20260831053149 | 60 | 210 | 0.9 | 1.7 | 0.00 | 0.04 | 0.04 | 62 | 1032.2 |
| 20260831052648 | 60 | 180 | 0.9 | 1.7 | 0.00 | 0.04 | 0.04 | 61 | 1032.3 |
| 20260831052148 | 61 | 173 | 2.6 | 2.6 | 0.00 | 0.04 | 0.04 | 57 | 1032.1 |
| 20260831051646 | 61 | 203 | 1.7 | 1.7 | 0.00 | 0.04 | 0.04 | 58 | 1032.3 |
| 20260831051144 | 62 | 218 | 0.0 | 0.0 | 0.00 | 0.04 | 0.04 | 57 | 1032.3 |
| 20260831050639 | 61 | 300 | 2.6 | 2.6 | 0.00 | 0.04 | 0.04 | 57 | 1032.3 |
| 20260831050138 | 61 | 234 | 0.0 | 0.9 | 0.00 | 0.04 | 0.04 | 59 | 1032.6 |
| 20260831045632 | 61 | 243 | 1.7 | 2.6 | 0.00 | 0.04 | 0.04 | 59 | 1032.8 |
| 20260831045127 | 62 | 230 | 0.0 | 0.9 | 0.00 | 0.04 | 0.04 | 59 | 1032.8 |
| 20260831044622 | 62 | 228 | 1.7 | 1.7 | 0.00 | 0.04 | 0.04 | 59 | 1033.1 |
| 20260831044118 | 62 | 220 | 2.6 | 2.6 | 0.00 | 0.04 | 0.04 | 59 | 1033.1 |
| 20260831043613 | 62 | 210 | 2.6 | 4.3 | 0.00 | 0.04 | 0.04 | 59 | 1032.9 |
| 20260831043108 | 62 | 133 | 5.2 | 7.8 | 0.00 | 0.04 | 0.04 | 56 | 1033.1 |
| 20260831042608 | 61 | 169 | 2.6 | 2.6 | 0.00 | 0.04 | 0.04 | 58 | 1032.6 |
| 20260831042103 | 61 | 180 | 1.7 | 1.7 | 0.00 | 0.04 | 0.04 | 58 | 1032.8 |
| 20260831041557 | 60 | 218 | 0.9 | 0.9 | 0.00 | 0.04 | 0.04 | 60 | 1032.6 |
| 20260831041057 | 60 | 205 | 0.9 | 0.9 | 0.00 | 0.04 | 0.04 | 61 | 1032.3 |
| 20260831040551 | 60 | 225 | 1.7 | 1.7 | 0.00 | 0.04 | 0.04 | 60 | 1032.2 |
| 20260831040046 | 60 | 182 | 0.9 | 1.7 | 0.00 | 0.04 | 0.04 | 61 | 1032.2 |
| 20260831035543 | 60 | 183 | 1.7 | 1.7 | 0.00 | 0.04 | 0.04 | 62 | 1031.9 |
| 20260831035038 | 60 | 190 | 0.0 | 0.9 | 0.00 | 0.04 | 0.04 | 60 | 1032.1 |
| 20260831034532 | 60 | 197 | 0.9 | 0.9 | 0.00 | 0.04 | 0.04 | 60 | 1031.8 |
| 20260831034028 | 60 | 205 | 0.9 | 0.9 | 0.00 | 0.04 | 0.04 | 60 | 1031.8 |
| 20260831033523 | 60 | 207 | 0.0 | 0.9 | 0.00 | 0.04 | 0.04 | 59 | 1032.1 |
| 20260831033018 | 60 | 194 | 0.0 | 0.0 | 0.00 | 0.04 | 0.04 | 59 | 1031.9 |
| 20260831032518 | 61 | 219 | 0.0 | 0.0 | 0.00 | 0.04 | 0.04 | 57 | 1031.9 |
| 20260831032014 | 61 | 221 | 0.0 | 0.0 | 0.00 | 0.04 | 0.04 | 56 | 1031.9 |
| 20260831031513 | 61 | 177 | 0.9 | 0.9 | 0.00 | 0.04 | 0.04 | 56 | 1032.1 |
| 20260831031012 | 60 | 193 | 1.7 | 1.7 | 0.00 | 0.04 | 0.04 | 58 | 1031.8 |
| 20260831030512 | 58 | 190 | 0.9 | 0.9 | 0.00 | 0.04 | 0.04 | 61 | 1031.8 |
| 20260831030011 | 57 | 220 | 0.0 | 0.0 | 0.00 | 0.04 | 0.04 | 64 | 1031.5 |
| 20260831025509 | 57 | 217 | 0.0 | 0.0 | 0.00 | 0.04 | 0.04 | 70 | 1031.7 |
| 20260831025004 | 57 | 219 | 0.0 | 0.0 | 0.00 | 0.04 | 0.04 | 66 | 1031.7 |
| 20260831024455 | 57 | 217 | 0.0 | 0.0 | 0.00 | 0.04 | 0.04 | 67 | 1031.7 |
| 20260831023954 | 57 | 189 | 0.9 | 0.9 | 0.00 | 0.04 | 0.04 | 70 | 1031.5 |
| 20260831023452 | 57 | 221 | 0.0 | 0.0 | 0.00 | 0.04 | 0.04 | 72 | 1031.2 |
| 20260831022948 | 57 | 213 | 0.0 | 0.0 | 0.00 | 0.04 | 0.04 | 67 | 1030.9 |
| 20260831022446 | 58 | 204 | 0.0 | 0.0 | 0.00 | 0.04 | 0.04 | 73 | 1031.3 |
| 20260831021942 | 59 | 215 | 0.0 | 0.0 | 0.00 | 0.04 | 0.04 | 71 | 1031.2 |
| 20260831021441 | 59 | 181 | 0.9 | 0.9 | 0.00 | 0.04 | 0.04 | 63 | 1031.3 |
| 20260831020937 | 59 | 205 | 0.0 | 0.0 | 0.00 | 0.04 | 0.04 | 66 | 1031.2 |
| 20260831020436 | 59 | 179 | 0.9 | 1.7 | 0.00 | 0.04 | 0.04 | 70 | 1030.9 |
| 20260831015931 | 59 | 189 | 0.0 | 0.9 | 0.00 | 0.04 | 0.04 | 72 | 1030.9 |
| 20260831015427 | 59 | 203 | 0.0 | 0.0 | 0.00 | 0.04 | 0.04 | 72 | 1030.9 |
| 20260831014922 | 60 | 185 | 0.9 | 1.7 | 0.00 | 0.04 | 0.04 | 73 | 1030.8 |
| 20260831014423 | 60 | 221 | 0.0 | 0.0 | 0.00 | 0.04 | 0.04 | 71 | 1030.7 |
| 20260831013918 | 60 | 212 | 0.9 | 1.7 | 0.00 | 0.04 | 0.04 | 67 | 1030.7 |
| 20260831013414 | 61 | 152 | 0.9 | 1.7 | 0.00 | 0.04 | 0.04 | 69 | 1030.5 |
| 20260831012908 | 61 | 212 | 0.0 | 0.0 | 0.00 | 0.04 | 0.04 | 69 | 1030.9 |
| 20260831012403 | 62 | 191 | 0.9 | 0.9 | 0.00 | 0.04 | 0.04 | 71 | 1030.8 |
| 20260831011857 | 62 | 205 | 0.0 | 0.9 | 0.00 | 0.04 | 0.04 | 69 | 1030.5 |
| 20260831011352 | 63 | 220 | 0.0 | 0.0 | 0.00 | 0.04 | 0.04 | 66 | 1030.7 |
| 20260831010848 | 64 | 175 | 0.9 | 0.9 | 0.00 | 0.04 | 0.04 | 65 | 1030.7 |
| 20260831010348 | 64 | 193 | 0.9 | 0.9 | 0.00 | 0.04 | 0.04 | 67 | 1030.5 |
| 20260831005844 | 64 | 211 | 0.0 | 0.0 | 0.00 | 0.04 | 0.04 | 68 | 1030.8 |
| 20260831005339 | 66 | 218 | 0.0 | 0.0 | 0.00 | 0.04 | 0.04 | 66 | 1030.4 |
| 20260831004833 | 66 | 218 | 0.0 | 0.9 | 0.00 | 0.04 | 0.04 | 61 | 1030.8 |
| 20260831004330 | 66 | 196 | 0.0 | 0.0 | 0.00 | 0.04 | 0.04 | 62 | 1030.5 |
| 20260831003826 | 67 | 222 | 0.9 | 0.9 | 0.00 | 0.04 | 0.04 | 61 | 1030.4 |
| 20260831003322 | 67 | 222 | 0.0 | 0.9 | 0.00 | 0.04 | 0.04 | 58 | 1030.3 |
| 20260831002821 | 68 | 280 | 0.9 | 0.9 | 0.00 | 0.04 | 0.04 | 57 | 1030.5 |
| 20260831002320 | 68 | 249 | 2.6 | 2.6 | 0.00 | 0.04 | 0.04 | 58 | 1030.3 |
| 20260831001816 | 68 | 233 | 0.9 | 1.7 | 0.00 | 0.04 | 0.04 | 60 | 1030.3 |
| 20260831001311 | 68 | 8 | 2.6 | 2.6 | 0.00 | 0.04 | 0.04 | 59 | 1030.2 |
| 20260831000809 | 69 | 241 | 1.7 | 2.6 | 0.00 | 0.04 | 0.04 | 56 | 1030.4 |
| 20260831000310 | 69 | 325 | 3.5 | 4.3 | 0.00 | 0.04 | 0.04 | 54 | 1030.5 |
| 20260830235806 | 69 | 231 | 1.7 | 1.7 | 0.00 | 0.04 | 0.04 | 53 | 1030.3 |
| 20260830235305 | 69 | 210 | 2.6 | 2.6 | 0.00 | 0.04 | 0.04 | 55 | 1030.3 |
| 20260830234756 | 69 | 115 | 1.7 | 4.3 | 0.00 | 0.04 | 0.04 | 56 | 1030.5 |
| 20260830234253 | 70 | 223 | 0.0 | 0.0 | 0.00 | 0.04 | 0.04 | 52 | 1030.2 |
| 20260830233748 | 72 | 228 | 0.9 | 0.9 | 0.00 | 0.04 | 0.04 | 51 | 1030.3 |
| 20260830233243 | 71 | 241 | 0.9 | 1.7 | 0.00 | 0.04 | 0.04 | 53 | 1030.4 |
| 20260830232739 | 68 | 212 | 0.0 | 0.0 | 0.00 | 0.04 | 0.04 | 56 | 1030.4 |
| 20260830232235 | 68 | 217 | 0.0 | 0.0 | 0.00 | 0.04 | 0.04 | 60 | 1030.4 |
| 20260830231731 | 68 | 180 | 0.9 | 1.7 | 0.00 | 0.04 | 0.04 | 61 | 1030.8 |
| 20260830231230 | 67 | 214 | 0.0 | 0.0 | 0.00 | 0.04 | 0.04 | 61 | 1030.5 |
| 20260830230726 | 67 | 238 | 0.0 | 0.9 | 0.00 | 0.04 | 0.04 | 59 | 1030.7 |
| 20260830230221 | 68 | 310 | 2.6 | 2.6 | 0.00 | 0.04 | 0.04 | 60 | 1030.8 |
| 20260830225720 | 67 | 223 | 0.0 | 0.9 | 0.00 | 0.04 | 0.04 | 60 | 1030.5 |
| 20260830225215 | 66 | 216 | 0.0 | 0.9 | 0.00 | 0.04 | 0.04 | 61 | 1030.4 |
| 20260830224714 | 65 | 186 | 0.0 | 0.9 | 0.00 | 0.04 | 0.04 | 67 | 1030.7 |
| 20260830224210 | 63 | 230 | 0.0 | 0.9 | 0.00 | 0.04 | 0.04 | 70 | 1031.0 |
| 20260830223706 | 62 | 222 | 0.0 | 0.0 | 0.00 | 0.04 | 0.04 | 76 | 1030.7 |
| 20260830223202 | 62 | 184 | 0.9 | 1.7 | 0.00 | 0.04 | 0.04 | 73 | 1030.7 |
| 20260830222656 | 63 | 194 | 0.9 | 0.9 | 0.00 | 0.04 | 0.04 | 70 | 1030.5 |
| 20260830222152 | 63 | 222 | 0.0 | 0.0 | 0.00 | 0.04 | 0.04 | 69 | 1030.8 |
| 20260830221647 | 64 | 217 | 0.0 | 0.0 | 0.00 | 0.04 | 0.04 | 69 | 1030.5 |
| 20260830221144 | 64 | 218 | 0.0 | 0.0 | 0.00 | 0.04 | 0.04 | 69 | 1031.2 |
| 20260830220639 | 64 | 221 | 0.0 | 0.0 | 0.00 | 0.04 | 0.04 | 75 | 1031.0 |
| 20260830220138 | 62 | 213 | 0.0 | 0.0 | 0.00 | 0.04 | 0.04 | 77 | 1031.2 |
| 20260830215637 | 62 | 220 | 0.0 | 0.0 | 0.00 | 0.04 | 0.04 | 78 | 1031.2 |
| 20260830215131 | 60 | 219 | 0.0 | 0.0 | 0.00 | 0.04 | 0.04 | 76 | 1031.2 |
| 20260830214626 | 60 | 205 | 0.9 | 0.9 | 0.00 | 0.04 | 0.04 | 82 | 1030.9 |
| 20260830214121 | 58 | 175 | 1.7 | 1.7 | 0.00 | 0.04 | 0.04 | 88 | 1031.2 |
| 20260830213621 | 59 | 258 | 0.9 | 0.9 | 0.00 | 0.04 | 0.04 | 86 | 1031.0 |
| 20260830213116 | 57 | 237 | 0.0 | 0.9 | 0.00 | 0.04 | 0.04 | 87 | 1030.9 |
| 20260830212612 | 57 | 217 | 1.7 | 1.7 | 0.00 | 0.04 | 0.04 | 89 | 1031.2 |
| 20260830212107 | 56 | 229 | 1.7 | 2.6 | 0.00 | 0.04 | 0.04 | 89 | 1031.3 |
| 20260830211602 | 56 | 227 | 5.2 | 6.1 | 0.00 | 0.04 | 0.04 | 89 | 1031.4 |
| 20260830211101 | 55 | 235 | 5.2 | 7.0 | 0.07 | 0.04 | 0.04 | 90 | 1031.3 |
| 20260830210557 | 55 | 227 | 4.3 | 6.1 | 0.07 | 0.04 | 0.04 | 94 | 1031.7 |
| 20260830210056 | 56 | 213 | 0.9 | 1.7 | 0.05 | 0.03 | 0.03 | 93 | 1031.8 |
| 20260830205553 | 56 | 241 | 2.6 | 2.6 | 0.17 | 0.03 | 0.03 | 89 | 1031.5 |
| 20260830205050 | 58 | 282 | 6.1 | 7.0 | 0.12 | 0.02 | 0.02 | 82 | 1031.4 |
| 20260830204549 | 60 | 191 | 4.3 | 5.2 | 0.00 | 0.00 | 0.00 | 70 | 1031.2 |
| 20260830204048 | 62 | 246 | 9.6 | 12.2 | 0.00 | 0.00 | 0.00 | 64 | 1031.2 |
| 20260830203544 | 67 | 272 | 8.7 | 9.6 | 0.00 | 0.00 | 0.00 | 57 | 1030.7 |
| 20260830203044 | 68 | 216 | 6.1 | 7.0 | 0.00 | 0.00 | 0.00 | 57 | 1030.4 |
| 20260830202539 | 69 | 258 | 7.0 | 9.6 | 0.00 | 0.00 | 0.00 | 57 | 1030.4 |
| 20260830202035 | 69 | 3 | 6.1 | 8.7 | 0.00 | 0.00 | 0.00 | 57 | 1029.5 |
| 20260830201534 | 70 | 256 | 1.7 | 2.6 | 0.00 | 0.00 | 0.00 | 59 | 1029.8 |
| 20260830201029 | 71 | 276 | 0.9 | 1.7 | 0.00 | 0.00 | 0.00 | 54 | 1029.5 |
| 20260830200524 | 73 | 223 | 1.7 | 1.7 | 0.00 | 0.00 | 0.00 | 49 | 1029.3 |
| 20260830200023 | 74 | 331 | 0.0 | 0.9 | 0.00 | 0.00 | 0.00 | 45 | 1029.3 |
| 20260830195519 | 74 | 226 | 0.9 | 0.9 | 0.00 | 0.00 | 0.00 | 43 | 1029.3 |
| 20260830195017 | 74 | 245 | 0.9 | 0.9 | 0.00 | 0.00 | 0.00 | 43 | 1029.0 |
| 20260830194516 | 75 | 122 | 0.9 | 1.7 | 0.00 | 0.00 | 0.00 | 42 | 1029.1 |
| 20260830194011 | 75 | 240 | 0.9 | 1.7 | 0.00 | 0.00 | 0.00 | 42 | 1029.4 |
| 20260830193510 | 75 | 43 | 0.9 | 0.9 | 0.00 | 0.00 | 0.00 | 43 | 1028.8 |
| 20260830193005 | 75 | 132 | 0.9 | 0.9 | 0.00 | 0.00 | 0.00 | 42 | 1028.9 |
| 20260830192501 | 74 | 191 | 0.9 | 1.7 | 0.00 | 0.00 | 0.00 | 43 | 1028.9 |